Location: AstroGeek's Observatory
(41.9520°N, 70.9880°W)
Time: 05:22:10
(UTC-05:00)

ISS - All Passes

Search period start: 27 January 2015 00:00
Search period end: 06 February 2015 00:00
Orbit: 402 x 410 km, 51.6° (Epoch: 27 January)

Date Brightness Start Highest point End Pass type
(mag) Time Alt. Az. Time Alt. Az. Time Alt. Az.
27 Jan - 00:45:35 10° WNW 00:48:00 18° NNW 00:50:25 10° NE night (unlit)
27 Jan - 02:23:15 10° NW 02:25:26 16° N 02:27:38 10° NE night (unlit)
27 Jan - 03:59:29 10° NW 04:02:37 39° NNE 04:05:45 10° E visible
27 Jan - 05:36:10 10° WNW 05:39:03 27° SW 05:41:54 10° SSE visible
27 Jan - 22:15:55 10° SW 22:19:10 73° SE 22:22:29 10° ENE night (unlit)
27 Jan - 23:53:16 10° WNW 23:55:59 23° NNW 23:58:42 10° NE night (unlit)
28 Jan - 01:31:19 10° NW 01:33:21 15° N 01:35:25 10° NE night (unlit)
28 Jan - 03:07:48 10° NW 03:10:41 27° NNE 03:13:34 10° E night (unlit)
28 Jan - 04:44:07 10° WNW 04:47:22 52° SW 04:50:34 10° SE visible
28 Jan - 21:24:23 10° SSW 21:27:27 38° SE 21:30:32 10° ENE night (unlit)
28 Jan - 23:01:00 10° W 23:04:00 31° NNW 23:07:00 10° NE night (unlit)
29 Jan - 00:39:10 10° NW 00:41:15 16° N 00:43:21 10° NE night (unlit)
29 Jan - 02:16:05 10° NW 02:18:40 20° NNE 02:21:15 10° ENE night (unlit)
29 Jan - 03:52:15 10° NW 03:55:35 84° NE 03:58:53 10° ESE visible
29 Jan - 05:30:25 10° WSW 05:31:41 12° SW 05:32:50 10° SSW visible
29 Jan - 20:33:16 10° S 20:35:45 20° SE 20:38:17 10° E night (unlit)
29 Jan - 22:08:51 10° WSW 22:12:03 49° NNW 22:15:17 10° NE night (unlit)
29 Jan - 23:46:51 10° NW 23:49:09 17° N 23:51:27 10° NNE night (unlit)
30 Jan - 01:24:19 10° NNW 01:26:35 17° N 01:28:53 10° NE night (unlit)
30 Jan - 03:00:29 10° NW 03:03:42 47° NNE 03:06:55 10° ESE night (unlit)
30 Jan - 04:37:25 10° W 04:40:02 21° SW 04:42:36 10° S visible
30 Jan - 19:43:13 10° SE 19:44:05 11° SE 19:45:05 10° ESE night (unlit)
30 Jan - 21:16:54 10° SW 21:20:11 87° NNW 21:23:29 10° NE night (unlit)
30 Jan - 22:54:28 10° WNW 22:57:04 21° NNW 22:59:39 10° NE night (unlit)
31 Jan - 00:32:23 10° NW 00:34:28 15° N 00:36:33 10° NE night (unlit)
31 Jan - 02:08:44 10° NW 02:11:44 31° NNE 02:14:44 10° E night (unlit)
31 Jan - 03:45:11 10° WNW 03:48:18 39° SW 03:51:24 10° SSE night (unlit)
31 Jan - 20:25:11 10° SW 20:28:21 49° SE 20:31:33 10° ENE night (unlit)
31 Jan - 22:02:07 10° W 22:05:00 27° NNW 22:07:53 10° NE night (unlit)
31 Jan - 23:40:16 10° NW 23:42:18 15° N 23:44:21 10° NE night (unlit)
01 Feb - 01:17:00 10° NW 01:19:41 23° NNE 01:22:24 10° ENE night (unlit)
01 Feb - 02:53:11 10° WNW 02:56:30 77° SW 02:59:47 10° SE night (unlit)
01 Feb - 19:33:49 10° SSW 19:36:34 26° SE 19:39:23 10° ENE visible
01 Feb - 21:09:51 10° W 21:12:59 40° NNW 21:16:07 10° NE night (unlit)
01 Feb - 22:47:57 10° NW 22:50:09 16° N 22:52:20 10° NNE night (unlit)
02 Feb - 00:25:11 10° NW 00:27:33 18° NNE 00:29:58 10° ENE night (unlit)
02 Feb - 02:01:19 10° NW 02:04:35 59° NNE 02:07:52 10° ESE night (unlit)
02 Feb - 03:38:35 10° W 03:40:50 17° SW 03:43:00 10° S night (unlit)
02 Feb - 18:43:04 10° SSE 18:44:50 14° SE 18:46:43 10° E visible
02 Feb - 20:17:45 10° WSW 20:21:00 69° NNW 20:24:18 10° NE night (unlit)
02 Feb - 21:55:31 10° WNW 21:57:59 19° NNW 22:00:26 10° NE night (unlit)
02 Feb - 23:33:16 10° NW 23:35:23 16° N 23:37:32 10° NE night (unlit)
03 Feb - 01:09:31 10° NW 01:12:36 36° NNE 01:15:42 10° E night (unlit)
03 Feb - 02:46:06 10° WNW 02:49:04 31° SW 02:52:01 10° SSE night (unlit)
03 Feb - 19:25:52 10° SW 19:29:05 64° SE 19:32:21 10° ENE visible
03 Feb - 21:03:04 10° WNW 21:05:50 24° NNW 21:08:36 10° NE night (unlit)
03 Feb - 22:41:10 10° NW 22:43:11 15° N 22:45:12 10° NE night (unlit)
04 Feb - 00:17:42 10° NW 00:20:31 25° NNE 00:23:20 10° E night (unlit)
04 Feb - 01:53:58 10° WNW 01:57:14 59° SW 02:00:29 10° SE night (unlit)
04 Feb - 18:34:16 10° SSW 18:37:14 33° SE 18:40:15 10° ENE visible
04 Feb - 20:10:42 10° W 20:13:44 34° NNW 20:16:47 10° NE visible
04 Feb - 21:48:51 10° NW 21:50:57 16° N 21:53:03 10° NE night (unlit)
04 Feb - 23:25:52 10° NW 23:28:22 20° NNE 23:30:52 10° ENE night (unlit)
05 Feb - 01:02:00 10° NW 01:05:19 74° NE 01:08:36 10° ESE night (unlit)
05 Feb - 02:39:45 10° W 02:41:27 13° SW 02:43:03 10° SSW night (unlit)
05 Feb - 17:43:09 10° S 17:45:25 18° SE 17:47:46 10° E visible
05 Feb - 19:18:27 10° WSW 19:21:41 55° NNW 19:24:55 10° NE visible
05 Feb - 20:56:23 10° WNW 20:58:43 18° NNW 21:01:03 10° NNE night (unlit)
05 Feb - 22:33:56 10° NNW 22:36:09 17° N 22:38:22 10° NE night (unlit)
